Lexington Weather

Lexington, Massachusetts, USA

24°F
3/3/2021 3:48am 
  • Lexington Conditions: Overcast
  • Temperature: 24.1°F / -4.4°CWarmer 1.3°F than last hour.
  • Dew Point: 10.6°FIncreased 0.4°Fsince last hour.
  • Relative Humidity: 56%Decreased 2.0% since last hour.
  • Wind: Wind from WSW WSW Calm, 10-min avg: 2 mph, gust: 8 mph
  • Barometer: 29.85 inFalling 0.02  inHg/hr Falling Slowly
  • Visibility: 10 miles
  • Snow Today: 0.0 in
  •   

Regional Weather Roundup
for Boston / Norton, MA

        
000
ASUS41 KBOX 260904
RWRBOX

REGIONAL WEATHER ROUNDUP
NATIONAL WEATHER SERVICE BOSTON/NORTON MA
400 AM EST FRI FEB 26 2021

NOTE:  "FAIR" INDICATES FEW OR NO CLOUDS BELOW 12,000 FEET WITH NO 
SIGNIFICANT WEATHER AND/OR OBSTRUCTIONS TO VISIBILITY.

MAZALL-261000-
EASTERN MASSACHUSETTS
  
CITY           SKY/WX    TMP DP  RH WIND       PRES   REMARKS
BOSTON         CLEAR     30  10  43 W7        30.27R WCI  23          
BEVERLY        CLEAR     28  13  53 W5        30.25R WCI  23          
LAWRENCE       CLEAR     25  14  63 W3        30.27R                  
BEDFORD        CLEAR     27  11  51 W6        30.26R WCI  20          
BLUE HILL        N/A     24  12  60 NW9       30.22R WCI  14          
NORWOOD        CLEAR     23  16  74 CALM      30.27R                  
MARSHFIELD     CLEAR     30  12  47 VRB6      30.26R WCI  24          
PLYMOUTH       CLEAR     28  10  46 NW7       30.25R WCI  21          
TAUNTON        CLEAR     27   9  46 CALM      30.26R                  
NEW BEDFORD    CLEAR     30   7  37 CALM      30.27R                  
$$

MAZALL-261000-
CAPE COD AND THE ISLANDS
  
CITY           SKY/WX    TMP DP  RH WIND       PRES   REMARKS
FALMOUTH       CLEAR     28   7  40 N7        30.25R WCI  21          
HYANNIS        CLEAR     31  11  43 NW7       30.24R WCI  24          
CHATHAM        CLEAR     31  15  52 NW3       30.26R                  
PROVINCETOWN   CLEAR     33  19  56 NW16      30.26R WCI  23          
NANTUCKET      CLEAR     30  12  47 W5        30.27R WCI  25          
MARTHAS VNYRD  CLEAR     31  11  43 W5        30.27R WCI  26          
$$
 
MAZALL-261000-
CENTRAL AND WESTERN MASSACHUSETTS
  
CITY           SKY/WX    TMP DP  RH WIND       PRES   REMARKS
WORCESTER      CLEAR     26   9  48 W12       30.22R WCI  16          
FITCHBURG      CLEAR     25  13  60 CALM      30.26R                  
ORANGE         CLEAR     24  12  60 NW3       30.27R                  
SPRINGFIELD    CLEAR     28  13  55 W9        30.28R WCI  19          
WESTFIELD      CLEAR     27  15  61 NW5       30.30R WCI  22          
NORTH ADAMS    CLOUDY    24  14  65 NW3       30.27R                  
PITTSFIELD     CLEAR     21  14  74 W9        30.23R WCI  11          
$$
 
RIZALL-261000-
RHODE ISLAND
  
CITY           SKY/WX    TMP DP  RH WIND       PRES   REMARKS
PROVIDENCE     CLEAR     32  10  40 NW7       30.28R WCI  26          
NEWPORT        CLEAR     30  13  49 W3        30.27R                  
BLOCK ISLAND   CLEAR     32  14  47 NW9G17    30.29R WCI  24          
SMITHFIELD     CLEAR     28  12  51 NW12      30.25R WCI  18          
WESTERLY       CLEAR     29  13  51 W3        30.29R                  
$$
 
CTZALL-261000-
CONNECTICUT
  
CITY           SKY/WX    TMP DP  RH WIND       PRES   REMARKS
BRADLEY INTL   PTCLDY    27  14  58 NW5       30.31R WCI  22          
HARTFORD       CLEAR     31  14  49 N6        30.32R WCI  25          
BRIDGEPORT     NOT AVBL                                               
DANBURY        PTCLDY    23  16  74 CALM      30.30R                  
GROTON         PTCLDY    30  14  51 W7        30.30R WCI  23          
NEW HAVEN      PTCLDY    28  19  69 E3        30.30R                  
CHESTER        FAIR      28  14  54 NW5       30.28R WCI  23          
MERIDEN        PTCLDY    25  18  74 N3        30.31R                  
WILLIMANTIC    CLEAR     30  14  51 NW7       30.29R WCI  23          
OXFORD         PTCLDY    26  16  65 N3        30.28R                  
$$

MEZ002-015-021-024-NHZ003-005-008-011-012-014-VTZ005-008-261000-
NORTHERN NEW ENGLAND
  
CITY           SKY/WX    TMP DP  RH WIND       PRES   REMARKS
PORTLAND ME    CLEAR     20   7  57 CALM      30.25R                  
BANGOR ME      PTCLDY    16   3  56 NW10      30.20R WCI   4          
CONCORD NH     CLEAR     21   7  54 NE3       30.25R                  
MANCHESTER NH  CLEAR     26  11  52 NW8       30.24R WCI  18          
NASHUA NH      CLEAR     27  13  55 W6        30.27R WCI  20          
PORTSMOUTH NH  CLEAR     24   8  49 NW6       30.24R WCI  17          
JAFFREY NH     CLEAR     18  11  74 CALM      30.22R                  
KEENE NH       CLEAR     20  15  81 S3        30.27R                  
BURLINGTON VT  CLOUDY    20   9  62 N6        30.32R WCI  12          
MT. WASHINGTON BLWGSNOW  -8  -8 100 NW86G93     N/A  VSB 1/16WCI -48  
$$

NYZ052-076-261000-
EASTERN NEW YORK
  
CITY           SKY/WX    TMP DP  RH WIND       PRES   REMARKS
ALBANY         MOCLDY    24  18  77 CALM      30.32R                  
NEW YORK CITY  CLOUDY    37  13  37 NW9       30.32R WCI  30          
$$
 
ANZALL-261000-
MARINE OBSERVATIONS
  
STATION/POSITION TIME  TEMP    WIND        PRES    VSBY  WAVE
                       AIR SEA DIR/SP/G                  HT/PER
                 (UTC) (F)     (DEG/KT/KT) (MB)    (MI)  (FT/S)
BOSTON BUOY      0840   33 39  290/ 16/ 17 1025.1R
BUZZARDS BAY     0800          290/ 13/ 15 1025.5R
NANTUCKET SOUND  0840      37  330/ 10/ 14   N/A
MASS BAY-STELLWA 0804   33     300/ 12/ 16 1023.2R  1 7/8  2/ 4
ISLE OF SHOALS   0800   29     350/ 10/ 10 1023.5R
S OF BLOCK IS    0826      40                N/A           3/ 8
$$

......................KEY.........................
  SKY/WX - SKY CONDITION/PRESENT WEATHER
  TMP    - TEMPERATURE IN FAHRENHEIT
  DWPT   - DEWPOINT IN FAHRENHEIT
  RH     - RELATIVE HUMIDITY IN PERCENT
  WIND   - DIRECTION AND SPEED IN MPH
  PRES   - MEAN SEA LEVEL PRESSURE IN INCHES OF HG
  WCI    - WIND CHILL INDEX
  VSB    - VISIBILITY IN MILES
  HX     - HEAT INDEX
  TC     - TEMPERATURE IN CELSIUS
  VRB    - VARIABLE WIND DIRECTION
  N/A    - NOT AVAILABLE
  
      

Other recent Regional Weather Roundups

Wed Mar 3, 3:04am

Wed Mar 3, 2:04am

Wed Mar 3, 1:04am

Wed Mar 3, 12:04am

Tue Mar 2, 11:04pm

Tue Mar 2, 10:05pm

Tue Mar 2, 9:04pm

Tue Mar 2, 8:04pm

Tue Mar 2, 7:04pm

Tue Mar 2, 6:04pm

Tue Mar 2, 5:04pm

Tue Mar 2, 4:05pm

Tue Mar 2, 3:04pm

Tue Mar 2, 2:04pm

Tue Mar 2, 1:04pm

Tue Mar 2, 12:04pm

Tue Mar 2, 11:04am

Tue Mar 2, 10:05am

Tue Mar 2, 9:04am

Tue Mar 2, 8:04am

Tue Mar 2, 7:04am

Tue Mar 2, 6:05am

Tue Mar 2, 5:04am

Tue Mar 2, 4:04am

Tue Mar 2, 3:04am

Tue Mar 2, 2:04am

Tue Mar 2, 1:04am

Tue Mar 2, 12:04am

Mon Mar 1, 11:04pm

Mon Mar 1, 10:04pm

Mon Mar 1, 9:04pm

Mon Mar 1, 8:04pm

Mon Mar 1, 7:04pm

Mon Mar 1, 6:04pm

Mon Mar 1, 5:04pm

Mon Mar 1, 4:05pm

Mon Mar 1, 3:05pm

Mon Mar 1, 2:04pm

Mon Mar 1, 1:04pm

Mon Mar 1, 12:04pm

Mon Mar 1, 11:04am

Mon Mar 1, 10:04am

Mon Mar 1, 9:04am

Mon Mar 1, 8:05am

Mon Mar 1, 7:04am

Mon Mar 1, 6:04am

Mon Mar 1, 5:04am

Mon Mar 1, 4:05am

Mon Mar 1, 3:04am

Mon Mar 1, 2:04am

Mon Mar 1, 1:04am

Mon Mar 1, 12:05am

Sun Feb 28, 11:04pm

Sun Feb 28, 10:04pm

Sun Feb 28, 9:04pm

Sun Feb 28, 8:04pm

Sun Feb 28, 7:04pm

Sun Feb 28, 6:05pm

Sun Feb 28, 5:04pm

Sun Feb 28, 4:05pm

Sun Feb 28, 3:04pm

Sun Feb 28, 2:04pm

Sun Feb 28, 1:04pm

Sun Feb 28, 12:04pm

Sun Feb 28, 11:04am

Sun Feb 28, 10:04am

Sun Feb 28, 9:04am

Sun Feb 28, 8:04am

Sun Feb 28, 7:04am

Sun Feb 28, 6:04am

Sun Feb 28, 5:04am

Sun Feb 28, 4:04am

Sun Feb 28, 3:04am

Sun Feb 28, 2:04am

Sun Feb 28, 1:04am

Sun Feb 28, 12:04am

Sat Feb 27, 11:04pm

Sat Feb 27, 10:04pm

Sat Feb 27, 9:04pm

Sat Feb 27, 8:04pm

Sat Feb 27, 7:04pm

Sat Feb 27, 6:04pm

Sat Feb 27, 5:04pm

Sat Feb 27, 4:04pm

Sat Feb 27, 3:05pm

Sat Feb 27, 2:05pm

Sat Feb 27, 1:04pm

Sat Feb 27, 12:04pm

Sat Feb 27, 11:04am

Sat Feb 27, 10:04am

Sat Feb 27, 9:05am

Sat Feb 27, 8:04am

Sat Feb 27, 7:04am

Sat Feb 27, 6:04am

Sat Feb 27, 5:04am

Sat Feb 27, 4:04am

Sat Feb 27, 3:04am

Sat Feb 27, 2:04am

Sat Feb 27, 1:04am

Sat Feb 27, 12:04am

Fri Feb 26, 11:04pm

Fri Feb 26, 10:04pm

Fri Feb 26, 9:04pm

Fri Feb 26, 8:04pm

Fri Feb 26, 7:04pm

Fri Feb 26, 6:04pm

Fri Feb 26, 5:04pm

Fri Feb 26, 4:04pm

Fri Feb 26, 3:04pm

Fri Feb 26, 2:04pm

Fri Feb 26, 1:04pm

Fri Feb 26, 12:04pm

Fri Feb 26, 11:04am

Fri Feb 26, 10:04am

Fri Feb 26, 9:04am

Fri Feb 26, 8:04am

Fri Feb 26, 7:04am

Fri Feb 26, 6:04am

Fri Feb 26, 5:04am

Fri Feb 26, 3:04am

Fri Feb 26, 2:04am

Fri Feb 26, 1:04am

Fri Feb 26, 12:04am

Thu Feb 25, 11:04pm

Thu Feb 25, 10:04pm

Thu Feb 25, 9:04pm

Thu Feb 25, 8:05pm

Thu Feb 25, 7:05pm

Thu Feb 25, 6:04pm

Thu Feb 25, 5:04pm

Thu Feb 25, 4:05pm

Thu Feb 25, 3:05pm

Thu Feb 25, 2:04pm

Thu Feb 25, 1:04pm

Thu Feb 25, 12:05pm

Thu Feb 25, 11:04am

Thu Feb 25, 10:04am

Thu Feb 25, 9:04am

Thu Feb 25, 8:04am

Thu Feb 25, 7:04am

Thu Feb 25, 6:04am

Thu Feb 25, 5:04am

Thu Feb 25, 4:04am

Thu Feb 25, 3:04am

Thu Feb 25, 2:04am

Thu Feb 25, 1:04am

Thu Feb 25, 12:04am

Wed Feb 24, 11:04pm

Wed Feb 24, 10:05pm

Wed Feb 24, 9:04pm

Wed Feb 24, 8:04pm

Wed Feb 24, 7:04pm

Wed Feb 24, 6:04pm

Wed Feb 24, 5:04pm

Wed Feb 24, 4:04pm

Wed Feb 24, 3:04pm

Wed Feb 24, 2:05pm

Wed Feb 24, 1:05pm

Wed Feb 24, 12:05pm

Wed Feb 24, 11:04am

Wed Feb 24, 10:04am

Wed Feb 24, 9:04am

Wed Feb 24, 8:04am

Wed Feb 24, 7:04am

Wed Feb 24, 6:04am

Wed Feb 24, 5:04am

Wed Feb 24, 4:04am

Meta data:

ID: 906271cb-2b70-41a0-b698-079747f7fd65
Link: https://api.weather.gov/products/906271cb-2b70-41a0-b698-079747f7fd65